Location: Daerah Kuala Lumpur
(3.1167°N, 101.6833°E)
Time: 09:36:45
(UTC+00:00)

BlueWalker 3 - Pass Details

Date: 18 February 2026
Orbit: 451 x 458 km, 53.2° (Epoch: 6 March)

Event Time Altitude Azimuth Distance (km) Brightness Sun altitude
Rises 22:34:00 0° 213° (SSW) 2,470 5.2 -13.6°
Reaches altitude 10° 22:36:08 10° 213° (SSW) 1,595 4.3 -13.1°
Maximum altitude 22:39:43 86° 128° (SE) 461 1.7 -12.2°
Drops below altitude 10° 22:43:18 10° 35° (NE) 1,588 4.8 -11.4°
Sets 22:45:26 0° 35° (NE) 2,458 5.8 -10.8°
